Tracking 31027 objects as of 19-Jul-2025
HD Live streaming from Space Station
objects crossing your sky now

IRIDIUM 33 DEB

Track IRIDIUM 33 DEB now!
10-day predictions


NORAD ID: 35052
Int'l Code: 1997-051NY
Perigee: 763.9 km
Apogee: 779.0 km
Inclination: 86.3 °
Period: 100.1 minutes
Semi major axis: 7142 km
RCS: 0.0011 m2 (small)
Launch date: September 14, 1997
Source: United States (US)
Launch site: TYURATAM MISSILE AND SPACE COMPLEX (TTMTR)

Note: This is SATELLITE DEBRIS
Your satellite tracking list
ABS 3
Track 1 satellite(s)




NASA's NSSDC Master Catalog

Two Line Element Set (TLE):
1 35052U 97051NY  25199.65341040  .00000369  00000-0  11490-3 0  9992
2 35052  86.3283  83.5350 0010506 195.7532 164.3341 14.38242771854025
Source of the keplerian elements: AFSPC